TimeCST,TemperatureF,Dew PointF,Humidity,Sea Level PressureIn,VisibilityMPH,Wind Direction,Wind SpeedMPH,Gust SpeedMPH,PrecipitationIn,Events,Conditions,WindDirDegrees,DateUTC
12:53 AM,44.1,35.1,71,30.20,10.0,SE,4.6,-,N/A,,Clear,130,2013-12-20 06:53:00
1:53 AM,43.0,35.1,74,30.20,10.0,Calm,Calm,-,N/A,,Clear,0,2013-12-20 07:53:00
2:53 AM,39.0,36.0,89,30.20,10.0,Calm,Calm,-,N/A,,Clear,0,2013-12-20 08:53:00
3:53 AM,41.0,36.0,82,30.19,10.0,ESE,3.5,-,N/A,,Clear,120,2013-12-20 09:53:00
4:53 AM,41.0,37.0,86,30.20,10.0,NE,4.6,-,N/A,,Clear,40,2013-12-20 10:53:00
5:53 AM,41.0,37.0,86,30.22,10.0,NE,5.8,-,N/A,,Partly Cloudy,40,2013-12-20 11:53:00
6:53 AM,42.1,37.9,85,30.23,10.0,NNE,3.5,-,N/A,,Partly Cloudy,30,2013-12-20 12:53:00
7:53 AM,46.9,41.0,80,30.23,10.0,NE,3.5,-,N/A,,Mostly Cloudy,40,2013-12-20 13:53:00
8:53 AM,52.0,46.0,80,30.23,10.0,East,5.8,-,N/A,,Overcast,100,2013-12-20 14:53:00
9:53 AM,55.9,48.0,75,30.24,10.0,ESE,4.6,-,N/A,,Overcast,110,2013-12-20 15:53:00
10:53 AM,62.1,52.0,70,30.22,10.0,SE,4.6,-,N/A,,Overcast,130,2013-12-20 16:53:00
11:53 AM,68.0,57.0,68,30.18,10.0,SSE,8.1,-,N/A,,Overcast,150,2013-12-20 17:53:00
12:53 PM,70.0,57.0,63,30.15,10.0,South,8.1,-,N/A,,Mostly Cloudy,180,2013-12-20 18:53:00
1:53 PM,72.0,57.9,61,30.14,10.0,South,9.2,-,N/A,,Clear,170,2013-12-20 19:53:00
2:53 PM,71.1,57.9,63,30.14,10.0,South,6.9,-,N/A,,Partly Cloudy,170,2013-12-20 20:53:00
3:53 PM,71.1,59.0,66,30.14,10.0,SE,4.6,-,N/A,,Mostly Cloudy,140,2013-12-20 21:53:00
4:53 PM,64.9,57.9,78,30.14,10.0,ESE,3.5,-,N/A,,Clear,120,2013-12-20 22:53:00
5:53 PM,61.0,57.0,87,30.15,10.0,Calm,Calm,-,N/A,,Clear,0,2013-12-20 23:53:00
6:53 PM,62.1,57.9,86,30.15,10.0,ESE,4.6,-,N/A,,Mostly Cloudy,120,2013-12-21 00:53:00
7:53 PM,60.1,57.9,93,30.15,10.0,SE,3.5,-,N/A,,Clear,130,2013-12-21 01:53:00
8:53 PM,59.0,57.0,93,30.15,10.0,SE,5.8,-,N/A,,Clear,140,2013-12-21 02:53:00
9:53 PM,60.1,57.9,93,30.15,10.0,Calm,Calm,-,N/A,,Scattered Clouds,0,2013-12-21 03:53:00
10:53 PM,57.9,55.9,93,30.14,7.0,East,4.6,-,N/A,,Mostly Cloudy,90,2013-12-21 04:53:00
11:53 PM,60.1,59.0,96,30.12,8.0,SE,5.8,-,N/A,,Overcast,140,2013-12-21 05:53:00